| time (UTC) | temp F | wind direction | speed MPH | gust MPH | rain 1hr in | rain 24hr in | rain mn in | humidity % | barometer mb |
| 20260904093902 | 53 | 300 | 1.0 | 2.0 | 0.00 | 0.00 | 0.00 | 72 | 1009.2 |
| 20260904093402 | 54 | 344 | 1.0 | 2.0 | 0.00 | 0.00 | 0.00 | 67 | 1009.2 |
| 20260904092857 | 54 | 359 | 5.0 | 6.0 | 0.00 | 0.00 | 0.00 | 66 | 1009.2 |
| 20260904092353 | 53 | 158 | 0.0 | 0.0 | 0.00 | 0.00 | 0.00 | 70 | 1009.4 |
| 20260904091849 | 53 | 147 | 0.0 | 0.0 | 0.00 | 0.00 | 0.00 | 70 | 1009.3 |
| 20260904091345 | 53 | 123 | 1.0 | 1.0 | 0.00 | 0.00 | 0.00 | 74 | 1009.2 |
| 20260904090839 | 52 | 95 | 1.0 | 2.0 | 0.00 | 0.00 | 0.00 | 70 | 1009.3 |
| 20260904090335 | 51 | 262 | 0.0 | 0.0 | 0.00 | 0.00 | 0.00 | 75 | 1009.5 |
| 20260904085830 | 51 | 235 | 0.0 | 0.0 | 0.00 | 0.00 | 0.00 | 75 | 1009.5 |
| 20260904085326 | 51 | 235 | 0.0 | 1.0 | 0.00 | 0.00 | 0.00 | 73 | 1009.5 |
| 20260904084820 | 50 | 226 | 1.0 | 1.0 | 0.00 | 0.00 | 0.00 | 75 | 1009.5 |
| 20260904084316 | 50 | 218 | 0.0 | 0.0 | 0.00 | 0.00 | 0.00 | 77 | 1009.4 |
| 20260904083812 | 51 | 172 | 0.0 | 0.0 | 0.00 | 0.00 | 0.00 | 76 | 1009.7 |
| 20260904083308 | 51 | 165 | 0.0 | 0.0 | 0.00 | 0.00 | 0.00 | 75 | 1009.6 |
| 20260904082803 | 53 | 149 | 0.0 | 0.0 | 0.00 | 0.00 | 0.00 | 70 | 1009.6 |
| 20260904082258 | 52 | 145 | 0.0 | 0.0 | 0.00 | 0.00 | 0.00 | 72 | 1009.8 |
| 20260904081753 | 51 | 142 | 0.0 | 0.0 | 0.00 | 0.00 | 0.00 | 74 | 1009.7 |
| 20260904081249 | 51 | 143 | 0.0 | 0.0 | 0.00 | 0.00 | 0.00 | 77 | 1009.8 |
| 20260904080744 | 51 | 136 | 0.0 | 0.0 | 0.00 | 0.00 | 0.00 | 77 | 1009.9 |
| 20260904080239 | 51 | 145 | 0.0 | 0.0 | 0.00 | 0.00 | 0.00 | 77 | 1009.9 |
| 20260904075736 | 52 | 47 | 0.0 | 1.0 | 0.00 | 0.00 | 0.00 | 77 | 1009.8 |
| 20260904075231 | 50 | 152 | 0.0 | 0.0 | 0.00 | 0.00 | 0.00 | 81 | 1010.0 |
| 20260904074730 | 51 | 149 | 0.0 | 0.0 | 0.00 | 0.00 | 0.00 | 79 | 1010.2 |
| 20260904074224 | 52 | 142 | 1.0 | 2.0 | 0.00 | 0.00 | 0.00 | 77 | 1010.3 |
| 20260904073720 | 51 | 239 | 0.0 | 0.0 | 0.00 | 0.00 | 0.00 | 79 | 1010.3 |
| 20260904073216 | 51 | 241 | 0.0 | 0.0 | 0.00 | 0.00 | 0.00 | 78 | 1010.4 |
| 20260904072712 | 52 | 242 | 0.0 | 0.0 | 0.00 | 0.00 | 0.00 | 77 | 1010.2 |
| 20260904072206 | 52 | 238 | 0.0 | 0.0 | 0.00 | 0.00 | 0.00 | 77 | 1010.5 |
| 20260904071702 | 52 | 228 | 0.0 | 0.0 | 0.00 | 0.00 | 0.00 | 77 | 1010.4 |
| 20260904071156 | 52 | 220 | 0.0 | 0.0 | 0.00 | 0.00 | 0.00 | 77 | 1010.4 |
| 20260904070656 | 51 | 218 | 0.0 | 0.0 | 0.00 | 0.00 | 0.00 | 78 | 1010.4 |
| 20260904070155 | 51 | 201 | 0.0 | 0.0 | 0.00 | 0.00 | 0.00 | 78 | 1010.4 |
| 20260904065650 | 52 | 200 | 0.0 | 0.0 | 0.00 | 0.00 | 0.00 | 77 | 1010.7 |
| 20260904065148 | 52 | 191 | 0.0 | 0.0 | 0.00 | 0.00 | 0.00 | 77 | 1010.7 |
| 20260904064647 | 53 | 260 | 0.0 | 0.0 | 0.00 | 0.00 | 0.00 | 77 | 1010.7 |
| 20260904064142 | 53 | 260 | 0.0 | 0.0 | 0.00 | 0.00 | 0.00 | 75 | 1010.7 |
| 20260904063638 | 53 | 260 | 0.0 | 0.0 | 0.00 | 0.00 | 0.00 | 74 | 1010.5 |
| 20260904063134 | 53 | 262 | 0.0 | 0.0 | 0.00 | 0.00 | 0.00 | 76 | 1010.4 |
| 20260904062630 | 53 | 260 | 0.0 | 0.0 | 0.00 | 0.00 | 0.00 | 78 | 1010.6 |
| 20260904062125 | 54 | 260 | 0.0 | 0.0 | 0.00 | 0.00 | 0.00 | 77 | 1010.4 |
| 20260904061621 | 54 | 260 | 0.0 | 0.0 | 0.00 | 0.00 | 0.00 | 76 | 1010.4 |
| 20260904061117 | 55 | 260 | 0.0 | 0.0 | 0.00 | 0.00 | 0.00 | 74 | 1010.5 |
| 20260904060613 | 55 | 260 | 0.0 | 0.0 | 0.00 | 0.00 | 0.00 | 74 | 1010.4 |
| 20260904060109 | 55 | 260 | 0.0 | 0.0 | 0.00 | 0.00 | 0.00 | 76 | 1010.5 |
| 20260904055604 | 55 | 261 | 0.0 | 0.0 | 0.00 | 0.00 | 0.00 | 76 | 1010.6 |
| 20260904055059 | 55 | 269 | 0.0 | 0.0 | 0.00 | 0.00 | 0.00 | 75 | 1010.7 |
| 20260904054555 | 56 | 284 | 0.0 | 0.0 | 0.00 | 0.00 | 0.00 | 73 | 1010.9 |
| 20260904054051 | 57 | 289 | 1.0 | 1.0 | 0.00 | 0.00 | 0.00 | 69 | 1010.9 |
| 20260904053550 | 57 | 295 | 0.0 | 0.0 | 0.00 | 0.00 | 0.00 | 66 | 1010.8 |
| 20260904053046 | 57 | 323 | 1.0 | 2.0 | 0.00 | 0.00 | 0.00 | 64 | 1010.9 |
| 20260904052542 | 58 | 353 | 3.0 | 3.0 | 0.00 | 0.00 | 0.00 | 61 | 1011.0 |
| 20260904052037 | 58 | 19 | 3.0 | 5.0 | 0.00 | 0.00 | 0.00 | 58 | 1011.0 |
| 20260904051534 | 58 | 31 | 3.0 | 3.0 | 0.00 | 0.00 | 0.00 | 61 | 1010.9 |
| 20260904051033 | 58 | 19 | 3.0 | 3.0 | 0.00 | 0.00 | 0.00 | 61 | 1011.3 |
| 20260904050529 | 58 | 25 | 2.0 | 2.0 | 0.00 | 0.00 | 0.00 | 60 | 1011.3 |
| 20260904050025 | 58 | 30 | 2.0 | 2.0 | 0.00 | 0.00 | 0.00 | 61 | 1011.4 |
| 20260904045520 | 57 | 35 | 1.0 | 1.0 | 0.00 | 0.00 | 0.00 | 62 | 1011.4 |
| 20260904045015 | 58 | 42 | 0.0 | 0.0 | 0.00 | 0.00 | 0.00 | 65 | 1011.4 |
| 20260904044510 | 59 | 42 | 0.0 | 0.0 | 0.00 | 0.00 | 0.00 | 62 | 1011.6 |
| 20260904044007 | 59 | 43 | 1.0 | 1.0 | 0.00 | 0.00 | 0.00 | 62 | 1011.5 |
| 20260904043503 | 59 | 44 | 1.0 | 1.0 | 0.00 | 0.00 | 0.00 | 62 | 1011.5 |
| 20260904042958 | 59 | 35 | 1.0 | 1.0 | 0.00 | 0.00 | 0.00 | 62 | 1011.5 |
| 20260904042455 | 58 | 49 | 2.0 | 2.0 | 0.00 | 0.00 | 0.00 | 62 | 1011.6 |
| 20260904041949 | 58 | 68 | 2.0 | 2.0 | 0.00 | 0.00 | 0.00 | 64 | 1011.4 |
| 20260904041446 | 58 | 63 | 3.0 | 3.0 | 0.00 | 0.00 | 0.00 | 63 | 1011.1 |
| 20260904040941 | 58 | 281 | 0.0 | 1.0 | 0.00 | 0.00 | 0.00 | 63 | 1011.1 |
| 20260904040441 | 57 | 281 | 0.0 | 1.0 | 0.00 | 0.00 | 0.00 | 64 | 1011.0 |
| 20260904035937 | 57 | 282 | 0.0 | 0.0 | 0.00 | 0.00 | 0.00 | 65 | 1011.0 |
| 20260904035433 | 57 | 312 | 0.0 | 0.0 | 0.00 | 0.00 | 0.00 | 65 | 1011.0 |
| 20260904034932 | 57 | 297 | 0.0 | 0.0 | 0.00 | 0.00 | 0.00 | 66 | 1010.9 |
| 20260904034427 | 57 | 348 | 3.0 | 3.0 | 0.00 | 0.00 | 0.00 | 64 | 1011.0 |
| 20260904033923 | 58 | 359 | 3.0 | 5.0 | 0.00 | 0.00 | 0.00 | 61 | 1011.1 |
| 20260904033419 | 57 | 348 | 2.0 | 2.0 | 0.00 | 0.00 | 0.00 | 64 | 1011.1 |
| 20260904032915 | 58 | 349 | 3.0 | 3.0 | 0.00 | 0.00 | 0.00 | 62 | 1011.1 |
| 20260904032410 | 58 | 351 | 2.0 | 2.0 | 0.00 | 0.00 | 0.00 | 61 | 1011.1 |
| 20260904031904 | 57 | 36 | 2.0 | 2.0 | 0.00 | 0.00 | 0.00 | 63 | 1011.3 |
| 20260904031359 | 59 | 14 | 1.0 | 1.0 | 0.00 | 0.00 | 0.00 | 60 | 1011.1 |
| 20260904030856 | 59 | 3 | 3.0 | 3.0 | 0.00 | 0.00 | 0.00 | 58 | 1011.0 |
| 20260904030351 | 59 | 358 | 3.0 | 3.0 | 0.00 | 0.00 | 0.00 | 59 | 1011.0 |
| 20260904025846 | 60 | 351 | 3.0 | 3.0 | 0.00 | 0.00 | 0.00 | 57 | 1010.9 |
| 20260904025342 | 60 | 0 | 3.0 | 3.0 | 0.00 | 0.00 | 0.00 | 57 | 1011.1 |
| 20260904024842 | 60 | 9 | 3.0 | 5.0 | 0.00 | 0.00 | 0.00 | 56 | 1010.9 |
| 20260904024337 | 61 | 6 | 4.0 | 6.0 | 0.00 | 0.00 | 0.00 | 56 | 1010.7 |
| 20260904023834 | 60 | 6 | 3.0 | 3.0 | 0.00 | 0.00 | 0.00 | 57 | 1010.7 |
| 20260904023330 | 61 | 6 | 3.0 | 3.0 | 0.00 | 0.00 | 0.00 | 56 | 1010.5 |
| 20260904022828 | 62 | 3 | 4.0 | 5.0 | 0.00 | 0.00 | 0.00 | 55 | 1010.3 |
| 20260904022326 | 62 | 2 | 4.0 | 5.0 | 0.00 | 0.00 | 0.00 | 53 | 1010.4 |
| 20260904021822 | 62 | 8 | 4.0 | 5.0 | 0.00 | 0.00 | 0.00 | 52 | 1010.4 |
| 20260904021322 | 62 | 0 | 4.0 | 5.0 | 0.00 | 0.00 | 0.00 | 52 | 1010.4 |
| 20260904020817 | 63 | 349 | 2.0 | 5.0 | 0.00 | 0.00 | 0.00 | 51 | 1010.4 |
| 20260904020312 | 63 | 0 | 2.0 | 2.0 | 0.00 | 0.00 | 0.00 | 51 | 1010.2 |
| 20260904015810 | 63 | 342 | 1.0 | 1.0 | 0.00 | 0.00 | 0.00 | 52 | 1010.2 |
| 20260904015307 | 64 | 352 | 1.0 | 2.0 | 0.00 | 0.00 | 0.00 | 51 | 1010.2 |
| 20260904014804 | 65 | 349 | 2.0 | 2.0 | 0.00 | 0.00 | 0.00 | 49 | 1009.9 |
| 20260904014300 | 66 | 10 | 3.0 | 3.0 | 0.00 | 0.00 | 0.00 | 48 | 1010.0 |
| 20260904013756 | 67 | 0 | 4.0 | 5.0 | 0.00 | 0.00 | 0.00 | 46 | 1010.0 |
| 20260904013251 | 67 | 17 | 5.0 | 7.0 | 0.00 | 0.00 | 0.00 | 44 | 1010.0 |
| 20260904012747 | 68 | 7 | 5.0 | 6.0 | 0.00 | 0.00 | 0.00 | 43 | 1009.9 |
| 20260904012247 | 69 | 355 | 3.0 | 3.0 | 0.00 | 0.00 | 0.00 | 43 | 1009.9 |
| 20260904011746 | 69 | 4 | 3.0 | 3.0 | 0.00 | 0.00 | 0.00 | 42 | 1009.8 |
| 20260904011242 | 70 | 346 | 4.0 | 5.0 | 0.00 | 0.00 | 0.00 | 41 | 1009.8 |
| 20260904010736 | 71 | 359 | 3.0 | 3.0 | 0.00 | 0.00 | 0.00 | 41 | 1009.8 |
| 20260904010233 | 71 | 14 | 4.0 | 6.0 | 0.00 | 0.00 | 0.00 | 39 | 1009.7 |
| 20260904005733 | 71 | 15 | 3.0 | 3.0 | 0.00 | 0.00 | 0.00 | 39 | 1009.9 |
| 20260904005224 | 72 | 11 | 4.0 | 5.0 | 0.00 | 0.00 | 0.00 | 38 | 1009.9 |
| 20260904004724 | 73 | 348 | 5.0 | 6.0 | 0.00 | 0.00 | 0.00 | 37 | 1009.9 |
| 20260904004219 | 74 | 332 | 3.0 | 5.0 | 0.00 | 0.00 | 0.00 | 36 | 1009.8 |
| 20260904003714 | 75 | 332 | 1.0 | 2.0 | 0.00 | 0.00 | 0.00 | 38 | 1009.9 |
| 20260904003211 | 75 | 281 | 1.0 | 1.0 | 0.00 | 0.00 | 0.00 | 36 | 1009.9 |
| 20260904002706 | 76 | 259 | 0.0 | 0.0 | 0.00 | 0.00 | 0.00 | 34 | 1010.0 |
| 20260904002202 | 76 | 270 | 0.0 | 0.0 | 0.00 | 0.00 | 0.00 | 35 | 1009.9 |
| 20260904001656 | 76 | 263 | 1.0 | 2.0 | 0.00 | 0.00 | 0.00 | 36 | 1009.8 |
| 20260904001155 | 76 | 296 | 2.0 | 2.0 | 0.00 | 0.00 | 0.00 | 35 | 1009.9 |
| 20260904000651 | 76 | 254 | 0.0 | 0.0 | 0.00 | 0.00 | 0.00 | 36 | 1009.8 |
| 20260904000146 | 75 | 260 | 1.0 | 1.0 | 0.00 | 0.00 | 0.00 | 35 | 1009.7 |
| 20260903235645 | 74 | 208 | 1.0 | 2.0 | 0.00 | 0.00 | 0.00 | 36 | 1009.8 |
| 20260903235142 | 75 | 158 | 1.0 | 1.0 | 0.00 | 0.00 | 0.00 | 35 | 1009.8 |
| 20260903234636 | 76 | 289 | 3.0 | 3.0 | 0.00 | 0.00 | 0.00 | 33 | 1009.6 |
| 20260903234132 | 77 | 201 | 1.0 | 2.0 | 0.00 | 0.00 | 0.00 | 35 | 1009.7 |
| 20260903233629 | 76 | 341 | 4.0 | 5.0 | 0.00 | 0.00 | 0.00 | 33 | 1009.5 |
| 20260903233124 | 77 | 228 | 0.0 | 0.0 | 0.00 | 0.00 | 0.00 | 35 | 1009.7 |
| 20260903232618 | 77 | 195 | 1.0 | 2.0 | 0.00 | 0.00 | 0.00 | 34 | 1009.6 |
| 20260903232114 | 77 | 20 | 2.0 | 3.0 | 0.00 | 0.00 | 0.00 | 35 | 1009.5 |
| 20260903231603 | 76 | 259 | 1.0 | 2.0 | 0.00 | 0.00 | 0.00 | 30 | 1009.6 |
| 20260903231103 | 77 | 220 | 2.0 | 2.0 | 0.00 | 0.00 | 0.00 | 32 | 1009.4 |
| 20260903230559 | 77 | 245 | 1.0 | 1.0 | 0.00 | 0.00 | 0.00 | 30 | 1009.6 |
| 20260903230057 | 77 | 230 | 1.0 | 1.0 | 0.00 | 0.00 | 0.00 | 35 | 1009.4 |
| 20260903225555 | 76 | 208 | 3.0 | 5.0 | 0.00 | 0.00 | 0.00 | 31 | 1009.4 |
| 20260903225051 | 77 | 219 | 2.0 | 2.0 | 0.00 | 0.00 | 0.00 | 32 | 1009.4 |
| 20260903224547 | 76 | 238 | 6.0 | 8.0 | 0.00 | 0.00 | 0.00 | 31 | 1009.6 |
| 20260903224043 | 77 | 237 | 4.0 | 5.0 | 0.00 | 0.00 | 0.00 | 31 | 1009.4 |
| 20260903223543 | 76 | 276 | 0.0 | 1.0 | 0.00 | 0.00 | 0.00 | 31 | 1009.6 |
| 20260903223042 | 75 | 250 | 4.0 | 8.0 | 0.00 | 0.00 | 0.00 | 32 | 1009.6 |
| 20260903222537 | 77 | 246 | 4.0 | 6.0 | 0.00 | 0.00 | 0.00 | 32 | 1009.5 |
| 20260903222035 | 77 | 236 | 2.0 | 2.0 | 0.00 | 0.00 | 0.00 | 33 | 1009.4 |
| 20260903221531 | 76 | 224 | 3.0 | 5.0 | 0.00 | 0.00 | 0.00 | 32 | 1009.2 |
| 20260903221028 | 76 | 226 | 17.0 | 18.0 | 0.00 | 0.00 | 0.00 | 30 | 1009.4 |
| 20260903220527 | 76 | 227 | 8.0 | 9.0 | 0.00 | 0.00 | 0.00 | 30 | 1009.2 |
| 20260903220022 | 77 | 276 | 7.0 | 8.0 | 0.00 | 0.00 | 0.00 | 31 | 1009.1 |
| 20260903215516 | 77 | 232 | 11.0 | 14.0 | 0.00 | 0.00 | 0.00 | 31 | 1009.0 |
| 20260903215015 | 77 | 228 | 9.0 | 13.0 | 0.00 | 0.00 | 0.00 | 30 | 1009.0 |
| 20260903214515 | 74 | 213 | 12.0 | 16.0 | 0.00 | 0.00 | 0.00 | 32 | 1009.1 |
| 20260903214010 | 74 | 244 | 12.0 | 15.0 | 0.00 | 0.00 | 0.00 | 32 | 1009.3 |
| 20260903213506 | 77 | 230 | 13.0 | 15.0 | 0.00 | 0.00 | 0.00 | 32 | 1009.1 |
| 20260903213001 | 74 | 226 | 3.0 | 5.0 | 0.00 | 0.00 | 0.00 | 36 | 1009.1 |
| 20260903212456 | 77 | 217 | 10.0 | 10.0 | 0.00 | 0.00 | 0.00 | 31 | 1008.8 |
| 20260903211951 | 74 | 235 | 5.0 | 7.0 | 0.00 | 0.00 | 0.00 | 34 | 1008.8 |
| 20260903211447 | 74 | 223 | 10.0 | 10.0 | 0.00 | 0.00 | 0.00 | 33 | 1008.7 |
| 20260903210943 | 76 | 256 | 7.0 | 9.0 | 0.00 | 0.00 | 0.00 | 32 | 1008.8 |
| 20260903210442 | 76 | 211 | 14.0 | 16.0 | 0.00 | 0.00 | 0.00 | 32 | 1008.7 |
| 20260903205937 | 76 | 207 | 7.0 | 8.0 | 0.00 | 0.00 | 0.00 | 32 | 1008.8 |
| 20260903205432 | 76 | 205 | 7.0 | 11.0 | 0.00 | 0.00 | 0.00 | 34 | 1008.5 |
| 20260903204926 | 76 | 219 | 9.0 | 11.0 | 0.00 | 0.00 | 0.00 | 32 | 1008.8 |
| 20260903204423 | 75 | 239 | 7.0 | 9.0 | 0.00 | 0.00 | 0.00 | 33 | 1008.8 |
| 20260903203918 | 76 | 253 | 8.0 | 11.0 | 0.00 | 0.00 | 0.00 | 33 | 1009.0 |
| 20260903203414 | 74 | 240 | 8.0 | 11.0 | 0.00 | 0.00 | 0.00 | 32 | 1008.6 |
| 20260903202913 | 74 | 224 | 7.0 | 9.0 | 0.00 | 0.00 | 0.00 | 33 | 1008.7 |
| 20260903202410 | 75 | 243 | 8.0 | 13.0 | 0.00 | 0.00 | 0.00 | 34 | 1008.7 |
| 20260903201909 | 75 | 244 | 12.0 | 14.0 | 0.00 | 0.00 | 0.00 | 31 | 1008.7 |
| 20260903201405 | 75 | 244 | 8.0 | 9.0 | 0.00 | 0.00 | 0.00 | 34 | 1009.0 |
| 20260903200903 | 76 | 236 | 14.0 | 16.0 | 0.00 | 0.00 | 0.00 | 32 | 1008.6 |
| 20260903200359 | 76 | 220 | 8.0 | 14.0 | 0.00 | 0.00 | 0.00 | 33 | 1008.8 |
| 20260903195854 | 77 | 236 | 11.0 | 14.0 | 0.00 | 0.00 | 0.00 | 33 | 1008.7 |
| 20260903195350 | 76 | 207 | 7.0 | 11.0 | 0.00 | 0.00 | 0.00 | 35 | 1008.8 |
| 20260903194850 | 75 | 237 | 14.0 | 18.0 | 0.00 | 0.00 | 0.00 | 32 | 1009.0 |
| 20260903194346 | 75 | 215 | 11.0 | 14.0 | 0.00 | 0.00 | 0.00 | 33 | 1008.8 |
| 20260903193841 | 75 | 259 | 12.0 | 16.0 | 0.00 | 0.00 | 0.00 | 33 | 1009.0 |
| 20260903193338 | 74 | 215 | 11.0 | 15.0 | 0.00 | 0.00 | 0.00 | 33 | 1008.8 |
| 20260903192832 | 74 | 246 | 11.0 | 14.0 | 0.00 | 0.00 | 0.00 | 35 | 1008.8 |
| 20260903192328 | 74 | 237 | 10.0 | 14.0 | 0.00 | 0.00 | 0.00 | 34 | 1008.8 |
| 20260903191824 | 75 | 232 | 15.0 | 21.0 | 0.00 | 0.00 | 0.00 | 34 | 1008.8 |
| 20260903191321 | 74 | 207 | 8.0 | 10.0 | 0.00 | 0.00 | 0.00 | 35 | 1008.7 |
| 20260903190819 | 74 | 202 | 13.0 | 15.0 | 0.00 | 0.00 | 0.00 | 34 | 1008.7 |
| 20260903190314 | 73 | 241 | 11.0 | 14.0 | 0.00 | 0.00 | 0.00 | 35 | 1008.7 |
| 20260903185808 | 74 | 248 | 14.0 | 17.0 | 0.00 | 0.00 | 0.00 | 35 | 1009.0 |
| 20260903185306 | 73 | 201 | 8.0 | 9.0 | 0.00 | 0.00 | 0.00 | 35 | 1009.0 |
| 20260903184759 | 73 | 238 | 14.0 | 17.0 | 0.00 | 0.00 | 0.00 | 33 | 1009.0 |
| 20260903184256 | 74 | 250 | 8.0 | 10.0 | 0.00 | 0.00 | 0.00 | 37 | 1009.0 |
| 20260903183750 | 73 | 206 | 7.0 | 8.0 | 0.00 | 0.00 | 0.00 | 34 | 1008.8 |
| 20260903183244 | 73 | 231 | 15.0 | 17.0 | 0.00 | 0.00 | 0.00 | 36 | 1009.0 |
| 20260903182743 | 73 | 253 | 14.0 | 17.0 | 0.00 | 0.00 | 0.00 | 36 | 1008.6 |
| 20260903182238 | 72 | 250 | 13.0 | 14.0 | 0.00 | 0.00 | 0.00 | 34 | 1009.1 |
| 20260903181737 | 73 | 204 | 13.0 | 16.0 | 0.00 | 0.00 | 0.00 | 35 | 1009.0 |
| 20260903181232 | 73 | 245 | 11.0 | 16.0 | 0.00 | 0.00 | 0.00 | 36 | 1009.1 |
| 20260903180728 | 72 | 223 | 11.0 | 13.0 | 0.00 | 0.00 | 0.00 | 37 | 1009.0 |
| 20260903180227 | 72 | 222 | 11.0 | 13.0 | 0.00 | 0.00 | 0.00 | 36 | 1009.1 |
| 20260903175727 | 71 | 225 | 14.0 | 15.0 | 0.00 | 0.00 | 0.00 | 35 | 1009.1 |
| 20260903175226 | 71 | 227 | 15.0 | 17.0 | 0.00 | 0.00 | 0.00 | 37 | 1009.2 |
| 20260903174725 | 71 | 250 | 13.0 | 15.0 | 0.00 | 0.00 | 0.00 | 37 | 1009.2 |
| 20260903174221 | 72 | 199 | 13.0 | 16.0 | 0.00 | 0.00 | 0.00 | 37 | 1009.1 |
| 20260903173716 | 71 | 240 | 11.0 | 14.0 | 0.00 | 0.00 | 0.00 | 36 | 1009.2 |
| 20260903173212 | 71 | 232 | 11.0 | 14.0 | 0.00 | 0.00 | 0.00 | 38 | 1009.3 |
| 20260903172712 | 71 | 216 | 12.0 | 15.0 | 0.00 | 0.00 | 0.00 | 37 | 1009.3 |
| 20260903172207 | 70 | 227 | 17.0 | 20.0 | 0.00 | 0.00 | 0.00 | 37 | 1009.0 |
| 20260903171702 | 70 | 221 | 16.0 | 17.0 | 0.00 | 0.00 | 0.00 | 38 | 1009.2 |
| 20260903171158 | 70 | 221 | 14.0 | 16.0 | 0.00 | 0.00 | 0.00 | 36 | 1009.4 |
| 20260903170656 | 70 | 225 | 14.0 | 16.0 | 0.00 | 0.00 | 0.00 | 37 | 1009.2 |
| 20260903170153 | 70 | 224 | 15.0 | 18.0 | 0.00 | 0.00 | 0.00 | 38 | 1009.1 |
| 20260903165650 | 70 | 232 | 11.0 | 14.0 | 0.00 | 0.00 | 0.00 | 40 | 1009.3 |
| 20260903165145 | 70 | 240 | 12.0 | 14.0 | 0.00 | 0.00 | 0.00 | 38 | 1009.3 |
| 20260903164639 | 70 | 228 | 13.0 | 15.0 | 0.00 | 0.00 | 0.00 | 39 | 1009.1 |
| 20260903164136 | 70 | 226 | 13.0 | 15.0 | 0.00 | 0.00 | 0.00 | 38 | 1009.2 |
| 20260903163630 | 70 | 232 | 11.0 | 13.0 | 0.00 | 0.00 | 0.00 | 41 | 1009.1 |
| 20260903163127 | 69 | 224 | 10.0 | 13.0 | 0.00 | 0.00 | 0.00 | 41 | 1009.1 |
| 20260903162622 | 69 | 233 | 11.0 | 17.0 | 0.00 | 0.00 | 0.00 | 40 | 1009.0 |
| 20260903162119 | 69 | 218 | 14.0 | 16.0 | 0.00 | 0.00 | 0.00 | 41 | 1009.0 |
| 20260903161619 | 68 | 235 | 14.0 | 16.0 | 0.00 | 0.00 | 0.00 | 42 | 1009.0 |
| 20260903161114 | 67 | 193 | 4.0 | 6.0 | 0.00 | 0.00 | 0.00 | 49 | 1008.8 |
| 20260903160609 | 66 | 217 | 4.0 | 5.0 | 0.00 | 0.00 | 0.00 | 51 | 1009.1 |
| 20260903160103 | 65 | 221 | 4.0 | 5.0 | 0.00 | 0.00 | 0.00 | 52 | 1009.0 |
| 20260903155602 | 65 | 215 | 4.0 | 5.0 | 0.00 | 0.00 | 0.00 | 53 | 1009.2 |
| 20260903155057 | 64 | 235 | 5.0 | 6.0 | 0.00 | 0.00 | 0.00 | 54 | 1009.0 |
| 20260903154553 | 63 | 211 | 5.0 | 6.0 | 0.00 | 0.00 | 0.00 | 55 | 1009.1 |
| 20260903154049 | 62 | 199 | 6.0 | 6.0 | 0.00 | 0.00 | 0.00 | 56 | 1009.3 |
| 20260903153544 | 61 | 216 | 7.0 | 8.0 | 0.00 | 0.00 | 0.00 | 60 | 1009.2 |
| 20260903153040 | 61 | 211 | 7.0 | 9.0 | 0.00 | 0.00 | 0.00 | 60 | 1009.2 |
| 20260903152536 | 60 | 224 | 6.0 | 8.0 | 0.00 | 0.00 | 0.00 | 60 | 1009.1 |
| 20260903152033 | 60 | 208 | 7.0 | 8.0 | 0.00 | 0.00 | 0.00 | 61 | 1009.3 |
| 20260903151531 | 59 | 229 | 8.0 | 9.0 | 0.00 | 0.00 | 0.00 | 64 | 1009.3 |
| 20260903151027 | 58 | 222 | 6.0 | 7.0 | 0.00 | 0.00 | 0.00 | 65 | 1009.3 |
| 20260903150526 | 56 | 210 | 6.0 | 6.0 | 0.00 | 0.00 | 0.00 | 68 | 1009.4 |
| 20260903150022 | 55 | 222 | 8.0 | 9.0 | 0.00 | 0.00 | 0.00 | 67 | 1009.2 |
| 20260903145516 | 55 | 229 | 8.0 | 9.0 | 0.00 | 0.00 | 0.00 | 68 | 1009.3 |
| 20260903145012 | 55 | 210 | 7.0 | 7.0 | 0.00 | 0.00 | 0.00 | 68 | 1009.3 |
| 20260903144510 | 55 | 222 | 8.0 | 9.0 | 0.00 | 0.00 | 0.00 | 67 | 1009.3 |
| 20260903144007 | 55 | 232 | 7.0 | 8.0 | 0.00 | 0.00 | 0.00 | 67 | 1009.3 |
| 20260903143503 | 55 | 235 | 8.0 | 9.0 | 0.00 | 0.00 | 0.00 | 66 | 1009.4 |
| 20260903142958 | 55 | 231 | 8.0 | 9.0 | 0.00 | 0.00 | 0.00 | 66 | 1009.4 |
| 20260903142453 | 55 | 236 | 9.0 | 11.0 | 0.00 | 0.00 | 0.00 | 65 | 1009.5 |
| 20260903141950 | 55 | 231 | 8.0 | 9.0 | 0.00 | 0.00 | 0.00 | 65 | 1009.4 |
| 20260903141445 | 56 | 219 | 9.0 | 10.0 | 0.00 | 0.00 | 0.00 | 65 | 1009.3 |
| 20260903140940 | 56 | 232 | 9.0 | 11.0 | 0.00 | 0.00 | 0.00 | 64 | 1009.5 |
| 20260903140436 | 55 | 241 | 9.0 | 10.0 | 0.00 | 0.00 | 0.00 | 66 | 1009.3 |
| 20260903135931 | 55 | 229 | 7.0 | 9.0 | 0.00 | 0.00 | 0.00 | 68 | 1009.3 |
| 20260903135427 | 53 | 218 | 9.0 | 10.0 | 0.00 | 0.00 | 0.00 | 70 | 1009.0 |
| 20260903134921 | 54 | 221 | 8.0 | 8.0 | 0.00 | 0.00 | 0.00 | 71 | 1009.0 |
| 20260903134420 | 53 | 223 | 8.0 | 10.0 | 0.00 | 0.00 | 0.00 | 69 | 1009.0 |
| 20260903133918 | 52 | 238 | 8.0 | 9.0 | 0.00 | 0.00 | 0.00 | 71 | 1009.2 |
| 20260903133414 | 52 | 220 | 7.0 | 9.0 | 0.00 | 0.00 | 0.00 | 72 | 1009.0 |
| 20260903132909 | 51 | 209 | 7.0 | 9.0 | 0.00 | 0.00 | 0.00 | 72 | 1009.0 |
| 20260903132405 | 51 | 220 | 6.0 | 7.0 | 0.00 | 0.00 | 0.00 | 74 | 1008.7 |
| 20260903131904 | 50 | 223 | 6.0 | 7.0 | 0.00 | 0.00 | 0.00 | 75 | 1008.7 |
| 20260903131359 | 50 | 230 | 6.0 | 7.0 | 0.00 | 0.00 | 0.00 | 74 | 1008.6 |
| 20260903130858 | 49 | 243 | 7.0 | 8.0 | 0.00 | 0.00 | 0.00 | 76 | 1008.7 |
| 20260903130353 | 47 | 229 | 7.0 | 8.0 | 0.00 | 0.00 | 0.00 | 81 | 1008.4 |
| 20260903125851 | 46 | 215 | 5.0 | 6.0 | 0.00 | 0.00 | 0.00 | 86 | 1008.5 |
| 20260903125341 | 46 | 164 | 4.0 | 5.0 | 0.00 | 0.00 | 0.00 | 82 | 1008.5 |
| 20260903124840 | 46 | 191 | 0.0 | 0.0 | 0.00 | 0.00 | 0.00 | 83 | 1008.4 |
| 20260903124336 | 45 | 199 | 0.0 | 0.0 | 0.00 | 0.00 | 0.00 | 84 | 1008.6 |
| 20260903123834 | 45 | 198 | 0.0 | 0.0 | 0.00 | 0.00 | 0.00 | 84 | 1008.5 |
| 20260903123329 | 46 | 189 | 0.0 | 0.0 | 0.00 | 0.00 | 0.00 | 82 | 1008.4 |
| 20260903122828 | 46 | 222 | 0.0 | 0.0 | 0.00 | 0.00 | 0.00 | 81 | 1008.4 |
| 20260903122322 | 46 | 263 | 0.0 | 1.0 | 0.00 | 0.00 | 0.00 | 81 | 1008.4 |
| 20260903121820 | 47 | 182 | 1.0 | 1.0 | 0.00 | 0.00 | 0.00 | 79 | 1008.3 |
| 20260903121311 | 48 | 234 | 0.0 | 0.0 | 0.00 | 0.00 | 0.00 | 77 | 1008.3 |
| 20260903120806 | 48 | 184 | 1.0 | 1.0 | 0.00 | 0.00 | 0.00 | 78 | 1008.5 |
| 20260903120300 | 46 | 87 | 2.0 | 2.0 | 0.00 | 0.00 | 0.00 | 80 | 1008.4 |
| 20260903115759 | 47 | 92 | 3.0 | 3.0 | 0.00 | 0.00 | 0.00 | 80 | 1008.3 |
| 20260903115254 | 48 | 207 | 3.0 | 5.0 | 0.00 | 0.00 | 0.00 | 79 | 1008.3 |
| 20260903114748 | 48 | 219 | 5.0 | 6.0 | 0.00 | 0.00 | 0.00 | 77 | 1008.1 |
| 20260903114244 | 47 | 214 | 3.0 | 3.0 | 0.00 | 0.00 | 0.00 | 78 | 1008.2 |
| 20260903113738 | 47 | 270 | 0.0 | 0.0 | 0.00 | 0.00 | 0.00 | 81 | 1008.3 |
| 20260903113235 | 47 | 281 | 0.0 | 0.0 | 0.00 | 0.00 | 0.00 | 80 | 1008.3 |
| 20260903112730 | 47 | 289 | 0.0 | 0.0 | 0.00 | 0.00 | 0.00 | 79 | 1008.3 |
| 20260903112226 | 48 | 305 | 1.0 | 2.0 | 0.00 | 0.00 | 0.00 | 78 | 1008.3 |
| 20260903111724 | 48 | 253 | 3.0 | 3.0 | 0.00 | 0.00 | 0.00 | 77 | 1008.4 |
| 20260903111220 | 49 | 217 | 4.0 | 5.0 | 0.00 | 0.00 | 0.00 | 76 | 1008.4 |
| 20260903110716 | 49 | 235 | 4.0 | 6.0 | 0.00 | 0.00 | 0.00 | 74 | 1008.4 |
| 20260903110212 | 50 | 219 | 5.0 | 6.0 | 0.00 | 0.00 | 0.00 | 73 | 1008.2 |
| 20260903105711 | 50 | 238 | 7.0 | 8.0 | 0.00 | 0.00 | 0.00 | 72 | 1008.4 |
| 20260903105206 | 51 | 237 | 7.0 | 7.0 | 0.00 | 0.00 | 0.00 | 71 | 1008.2 |
| 20260903104706 | 51 | 227 | 7.0 | 9.0 | 0.00 | 0.00 | 0.00 | 70 | 1008.2 |
| 20260903104201 | 50 | 228 | 7.0 | 8.0 | 0.00 | 0.00 | 0.00 | 71 | 1008.3 |
| 20260903103657 | 50 | 238 | 5.0 | 7.0 | 0.00 | 0.00 | 0.00 | 72 | 1008.1 |
| 20260903103154 | 49 | 222 | 5.0 | 6.0 | 0.00 | 0.00 | 0.00 | 73 | 1008.0 |
| 20260903102654 | 49 | 234 | 5.0 | 6.0 | 0.00 | 0.00 | 0.00 | 75 | 1008.2 |
| 20260903102148 | 50 | 225 | 5.0 | 6.0 | 0.00 | 0.00 | 0.00 | 72 | 1008.1 |
| 20260903101647 | 50 | 226 | 5.0 | 7.0 | 0.00 | 0.00 | 0.00 | 72 | 1008.1 |
| 20260903101143 | 50 | 241 | 8.0 | 9.0 | 0.00 | 0.00 | 0.00 | 71 | 1007.9 |
| 20260903100637 | 51 | 225 | 9.0 | 10.0 | 0.00 | 0.00 | 0.00 | 70 | 1007.9 |
| 20260903100137 | 51 | 219 | 8.0 | 9.0 | 0.00 | 0.00 | 0.00 | 69 | 1007.9 |
| 20260903095635 | 50 | 229 | 7.0 | 8.0 | 0.00 | 0.00 | 0.00 | 71 | 1007.9 |
| 20260903095135 | 49 | 231 | 5.0 | 6.0 | 0.00 | 0.00 | 0.00 | 74 | 1008.1 |
| 20260903094630 | 49 | 221 | 3.0 | 3.0 | 0.00 | 0.00 | 0.00 | 74 | 1008.2 |